Time,TemperatureF,DewpointF,PressureIn,WindDirection,WindDirectionDegrees,WindSpeedMPH,WindSpeedGustMPH,Humidity,HourlyPrecipIn,Conditions,Clouds,dailyrainin,SolarRadiationWatts/m^2,SoftwareType,DateUTC
2013-08-19 00:00:00,69.9,59.3,29.83,NW,317,0.0,17.0,69,0.00,,,0.00,0,Wunderground v.1.15,2013-08-19 07:00:00,
2013-08-19 00:10:00,69.9,58.9,29.83,NW,310,0.0,17.0,68,0.00,,,0.00,0,Wunderground v.1.15,2013-08-19 07:10:00,
2013-08-19 00:20:00,69.7,59.1,29.82,NW,310,0.0,17.0,69,0.00,,,0.00,0,Wunderground v.1.15,2013-08-19 07:20:00,
2013-08-19 00:30:00,69.2,60.2,29.83,NNW,340,0.0,17.0,73,0.00,,,0.00,0,Wunderground v.1.15,2013-08-19 07:30:00,
2013-08-19 00:40:00,70.2,59.1,29.82,NNW,340,0.0,17.0,68,0.00,,,0.00,0,Wunderground v.1.15,2013-08-19 07:40:00,
2013-08-19 00:50:00,71.2,59.3,29.83,NNW,341,0.0,17.0,66,0.00,,,0.00,0,Wunderground v.1.15,2013-08-19 07:50:00,
2013-08-19 01:00:00,70.5,60.2,29.83,NNW,341,0.0,17.0,70,0.00,,,0.00,0,Wunderground v.1.15,2013-08-19 08:00:00,
2013-08-19 01:10:00,69.3,60.3,29.82,NNW,341,0.0,17.0,73,0.00,,,0.00,0,Wunderground v.1.15,2013-08-19 08:10:00,
2013-08-19 01:20:00,68.3,60.4,29.83,NNW,341,0.0,17.0,76,0.00,,,0.00,0,Wunderground v.1.15,2013-08-19 08:20:00,
2013-08-19 01:30:00,67.7,60.6,29.82,NNW,341,0.0,17.0,78,0.00,,,0.00,0,Wunderground v.1.15,2013-08-19 08:30:00,
2013-08-19 01:40:00,67.7,60.6,29.82,NNW,341,0.0,17.0,78,0.00,,,0.00,0,Wunderground v.1.15,2013-08-19 08:40:00,
2013-08-19 01:50:00,67.9,60.1,29.82,NNW,341,0.0,17.0,76,0.00,,,0.00,0,Wunderground v.1.15,2013-08-19 08:50:00,
2013-08-19 02:00:00,67.9,59.7,29.81,NNW,341,0.0,17.0,75,0.00,,,0.00,0,Wunderground v.1.15,2013-08-19 09:00:00,
2013-08-19 02:10:00,67.9,59.3,29.81,NW,311,0.0,17.0,74,0.00,,,0.00,0,Wunderground v.1.15,2013-08-19 09:10:00,
2013-08-19 02:20:00,68.4,58.6,29.81,NW,311,0.0,17.0,71,0.00,,,0.00,0,Wunderground v.1.15,2013-08-19 09:20:00,
2013-08-19 02:30:00,69.0,58.0,29.82,NW,311,0.0,17.0,68,0.00,,,0.00,0,Wunderground v.1.15,2013-08-19 09:30:00,
2013-08-19 02:40:00,68.6,58.0,29.81,NW,311,0.0,17.0,69,0.00,,,0.00,0,Wunderground v.1.15,2013-08-19 09:40:00,
2013-08-19 02:50:00,68.5,58.3,29.81,NW,311,0.0,17.0,70,0.00,,,0.00,0,Wunderground v.1.15,2013-08-19 09:50:00,
2013-08-19 03:00:00,67.9,58.5,29.81,NW,311,0.0,17.0,72,0.00,,,0.00,0,Wunderground v.1.15,2013-08-19 10:00:00,
2013-08-19 03:10:00,68.0,58.2,29.81,NW,311,0.0,17.0,71,0.00,,,0.00,0,Wunderground v.1.15,2013-08-19 10:10:00,
2013-08-19 03:20:00,68.2,58.0,29.81,WNW,302,0.0,17.0,70,0.00,,,0.00,0,Wunderground v.1.15,2013-08-19 10:20:00,
2013-08-19 03:30:00,68.4,58.2,29.81,WNW,302,0.0,17.0,70,0.00,,,0.00,0,Wunderground v.1.15,2013-08-19 10:30:00,
2013-08-19 03:40:00,67.9,57.8,29.81,WNW,302,0.0,17.0,70,0.00,,,0.00,0,Wunderground v.1.15,2013-08-19 10:40:00,
2013-08-19 03:50:00,67.6,57.9,29.81,WNW,302,0.0,17.0,71,0.00,,,0.00,0,Wunderground v.1.15,2013-08-19 10:50:00,
2013-08-19 04:00:00,67.7,57.2,29.81,WNW,302,0.0,17.0,69,0.00,,,0.00,0,Wunderground v.1.15,2013-08-19 11:00:00,
2013-08-19 04:10:00,68.4,57.4,29.81,WNW,302,0.0,17.0,68,0.00,,,0.00,0,Wunderground v.1.15,2013-08-19 11:10:00,
2013-08-19 04:20:00,68.6,57.6,29.81,WNW,302,0.0,17.0,68,0.00,,,0.00,0,Wunderground v.1.15,2013-08-19 11:20:00,
2013-08-19 04:30:00,68.6,57.6,29.81,WNW,302,0.0,17.0,68,0.00,,,0.00,0,Wunderground v.1.15,2013-08-19 11:30:00,
2013-08-19 04:40:00,68.6,57.6,29.81,WNW,302,0.0,17.0,68,0.00,,,0.00,0,Wunderground v.1.15,2013-08-19 11:40:00,
2013-08-19 04:50:00,68.6,57.2,29.81,WNW,302,0.0,17.0,67,0.00,,,0.00,0,Wunderground v.1.15,2013-08-19 11:50:00,
2013-08-19 05:00:00,68.9,57.1,29.82,WNW,303,0.0,17.0,66,0.00,,,0.00,0,Wunderground v.1.15,2013-08-19 12:00:00,
2013-08-19 05:10:00,69.2,56.9,29.82,WNW,303,0.0,17.0,65,0.00,,,0.00,0,Wunderground v.1.15,2013-08-19 12:10:00,
2013-08-19 05:20:00,69.7,57.0,29.82,NW,304,0.0,17.0,64,0.00,,,0.00,0,Wunderground v.1.15,2013-08-19 12:20:00,
2013-08-19 05:30:00,70.0,57.3,29.83,WNW,303,0.0,17.0,64,0.00,,,0.00,0,Wunderground v.1.15,2013-08-19 12:30:00,
2013-08-19 05:40:00,69.9,56.7,29.83,NW,304,0.0,17.0,63,0.00,,,0.00,0,Wunderground v.1.15,2013-08-19 12:40:00,
2013-08-19 05:50:00,69.9,56.7,29.83,NW,305,0.0,17.0,63,0.00,,,0.00,5,Wunderground v.1.15,2013-08-19 12:50:00,
2013-08-19 06:00:00,69.5,56.8,29.83,NW,304,0.0,17.0,64,0.00,,,0.00,11,Wunderground v.1.15,2013-08-19 13:00:00,
2013-08-19 06:10:00,69.4,58.0,29.83,NW,304,0.0,0.0,67,0.00,,,0.00,18,Wunderground v.1.15,2013-08-19 13:10:00,
2013-08-19 06:20:00,69.4,58.8,29.84,NW,304,0.0,0.0,69,0.00,,,0.00,30,Wunderground v.1.15,2013-08-19 13:20:00,
2013-08-19 06:30:00,69.2,59.0,29.84,NNE,21,0.0,0.0,70,0.00,,,0.00,39,Wunderground v.1.15,2013-08-19 13:30:00,
2013-08-19 06:40:00,69.2,59.8,29.84,NNE,21,0.0,0.0,72,0.00,,,0.00,54,Wunderground v.1.15,2013-08-19 13:40:00,
2013-08-19 06:50:00,69.1,59.7,29.84,NNE,21,0.0,0.0,72,0.00,,,0.00,70,Wunderground v.1.15,2013-08-19 13:50:00,
2013-08-19 07:00:00,69.1,59.3,29.85,NNE,21,0.0,0.0,71,0.00,,,0.00,91,Wunderground v.1.15,2013-08-19 14:00:00,
2013-08-19 07:10:00,69.4,59.6,29.84,NNE,21,0.0,0.0,71,0.00,,,0.00,120,Wunderground v.1.15,2013-08-19 14:10:00,
2013-08-19 07:20:00,69.9,60.1,29.85,NNE,20,0.0,0.0,71,0.00,,,0.00,142,Wunderground v.1.15,2013-08-19 14:20:00,
2013-08-19 07:30:00,70.7,60.8,29.85,SSW,202,0.0,0.0,71,0.00,,,0.00,197,Wunderground v.1.15,2013-08-19 14:30:00,
2013-08-19 07:40:00,71.7,60.6,29.85,South,190,1.0,3.0,68,0.00,,,0.00,288,Wunderground v.1.15,2013-08-19 14:40:00,
2013-08-19 07:50:00,73.1,57.9,29.85,SSW,211,1.0,1.0,59,0.00,,,0.00,301,Wunderground v.1.15,2013-08-19 14:50:00,
2013-08-19 08:00:00,74.3,58.1,29.85,South,185,0.0,0.0,57,0.00,,,0.00,251,Wunderground v.1.15,2013-08-19 15:00:00,
2013-08-19 08:10:00,75.2,57.9,29.85,SSW,205,0.0,0.0,55,0.00,,,0.00,237,Wunderground v.1.15,2013-08-19 15:10:00,
2013-08-19 08:20:00,75.6,59.3,29.85,SW,217,0.0,0.0,57,0.00,,,0.00,220,Wunderground v.1.15,2013-08-19 15:20:00,
2013-08-19 08:30:00,76.0,59.2,29.85,SW,218,0.0,0.0,56,0.00,,,0.00,241,Wunderground v.1.15,2013-08-19 15:30:00,
2013-08-19 08:40:00,76.5,58.6,29.85,SSW,213,0.0,0.0,54,0.00,,,0.00,323,Wunderground v.1.15,2013-08-19 15:40:00,
2013-08-19 08:50:00,77.8,59.3,29.85,SSW,197,0.0,0.0,53,0.00,,,0.00,403,Wunderground v.1.15,2013-08-19 15:50:00,
2013-08-19 09:00:00,78.8,57.4,29.84,SW,227,0.0,0.0,48,0.00,,,0.00,359,Wunderground v.1.15,2013-08-19 16:00:00,
2013-08-19 09:10:00,79.5,56.9,29.84,SW,227,0.0,4.0,46,0.00,,,0.00,362,Wunderground v.1.15,2013-08-19 16:10:00,
2013-08-19 09:20:00,79.9,57.3,29.84,SW,227,0.0,4.0,46,0.00,,,0.00,346,Wunderground v.1.15,2013-08-19 16:20:00,
2013-08-19 09:30:00,81.2,57.2,29.84,SW,227,0.0,4.0,44,0.00,,,0.00,587,Wunderground v.1.15,2013-08-19 16:30:00,
2013-08-19 09:40:00,82.3,56.9,29.85,SSE,148,0.0,4.0,42,0.00,,,0.00,504,Wunderground v.1.15,2013-08-19 16:40:00,
2013-08-19 09:50:00,83.5,57.3,29.84,SSE,148,0.0,4.0,41,0.00,,,0.00,575,Wunderground v.1.15,2013-08-19 16:50:00,
2013-08-19 10:00:00,83.6,56.7,29.84,SSE,148,0.0,4.0,40,0.00,,,0.00,687,Wunderground v.1.15,2013-08-19 17:00:00,
2013-08-19 10:10:00,84.9,55.7,29.84,South,170,0.0,4.0,37,0.00,,,0.00,717,Wunderground v.1.15,2013-08-19 17:10:00,
2013-08-19 10:20:00,86.8,56.6,29.84,SSW,198,0.0,4.0,36,0.00,,,0.00,803,Wunderground v.1.15,2013-08-19 17:20:00,
2013-08-19 10:30:00,87.3,53.8,29.84,South,175,0.0,4.0,32,0.00,,,0.00,738,Wunderground v.1.15,2013-08-19 17:30:00,
2013-08-19 10:40:00,88.4,54.8,29.84,East,99,0.0,4.0,32,0.00,,,0.00,802,Wunderground v.1.15,2013-08-19 17:40:00,
2013-08-19 10:50:00,88.9,56.9,29.84,SE,132,1.0,1.0,34,0.00,,,0.00,775,Wunderground v.1.15,2013-08-19 17:50:00,
2013-08-19 11:00:00,88.7,58.3,29.84,SE,141,1.0,1.0,36,0.00,,,0.00,756,Wunderground v.1.15,2013-08-19 18:00:00,
2013-08-19 11:10:00,89.2,56.3,29.83,SE,143,0.0,0.0,33,0.00,,,0.00,772,Wunderground v.1.15,2013-08-19 18:10:00,
2013-08-19 11:20:00,89.7,54.1,29.83,South,171,0.0,0.0,30,0.00,,,0.00,789,Wunderground v.1.15,2013-08-19 18:20:00,
2013-08-19 11:30:00,90.1,54.5,29.83,East,92,0.0,0.0,30,0.00,,,0.00,803,Wunderground v.1.15,2013-08-19 18:30:00,
2013-08-19 11:40:00,90.5,55.7,29.83,SE,134,0.0,0.0,31,0.00,,,0.00,831,Wunderground v.1.15,2013-08-19 18:40:00,
2013-08-19 11:50:00,91.9,56.0,29.83,ESE,111,0.0,0.0,30,0.00,,,0.00,981,Wunderground v.1.15,2013-08-19 18:50:00,
2013-08-19 12:00:00,92.5,54.7,29.82,East,85,0.0,0.0,28,0.00,,,0.00,939,Wunderground v.1.15,2013-08-19 19:00:00,
2013-08-19 12:10:00,92.8,52.9,29.82,ESE,112,0.0,5.0,26,0.00,,,0.00,960,Wunderground v.1.15,2013-08-19 19:10:00,
2013-08-19 12:20:00,93.7,53.6,29.82,East,98,1.0,1.0,26,0.00,,,0.00,998,Wunderground v.1.15,2013-08-19 19:20:00,
2013-08-19 12:30:00,94.7,52.3,29.81,NE,47,0.0,5.0,24,0.00,,,0.00,956,Wunderground v.1.15,2013-08-19 19:30:00,
2013-08-19 12:40:00,95.6,55.2,29.80,SW,221,0.0,5.0,26,0.00,,,0.00,974,Wunderground v.1.15,2013-08-19 19:40:00,
2013-08-19 12:50:00,95.9,53.3,29.80,East,101,0.0,5.0,24,0.00,,,0.00,914,Wunderground v.1.15,2013-08-19 19:50:00,
2013-08-19 13:00:00,95.8,50.9,29.80,East,97,2.0,2.0,22,0.00,,,0.00,888,Wunderground v.1.15,2013-08-19 20:00:00,
2013-08-19 13:10:00,95.6,51.9,29.79,ESE,109,0.0,5.0,23,0.00,,,0.00,747,Wunderground v.1.15,2013-08-19 20:10:00,
2013-08-19 13:20:00,95.4,52.9,29.79,SE,136,1.0,1.0,24,0.00,,,0.00,817,Wunderground v.1.15,2013-08-19 20:20:00,
2013-08-19 13:30:00,95.3,51.6,29.78,East,95,0.0,5.0,23,0.00,,,0.00,830,Wunderground v.1.15,2013-08-19 20:30:00,
2013-08-19 13:40:00,96.3,51.3,29.78,East,80,0.0,5.0,22,0.00,,,0.00,847,Wunderground v.1.15,2013-08-19 20:40:00,
2013-08-19 13:50:00,95.5,51.8,29.77,North,355,1.0,5.0,23,0.00,,,0.00,701,Wunderground v.1.15,2013-08-19 20:50:00,
2013-08-19 14:00:00,94.7,51.1,29.77,North,10,2.0,2.0,23,0.00,,,0.00,733,Wunderground v.1.15,2013-08-19 21:00:00,
2013-08-19 14:10:00,94.1,52.9,29.76,WNW,303,3.0,6.0,25,0.00,,,0.00,708,Wunderground v.1.15,2013-08-19 21:10:00,
2013-08-19 14:20:00,92.8,52.9,29.76,NW,310,6.0,6.0,26,0.00,,,0.00,649,Wunderground v.1.15,2013-08-19 21:20:00,
2013-08-19 14:30:00,93.2,54.3,29.75,WSW,257,2.0,2.0,27,0.00,,,0.00,747,Wunderground v.1.15,2013-08-19 21:30:00,
2013-08-19 14:40:00,94.0,51.7,29.75,NW,311,3.0,5.0,24,0.00,,,0.00,791,Wunderground v.1.15,2013-08-19 21:40:00,
2013-08-19 14:50:00,94.5,53.2,29.74,West,269,2.0,6.0,25,0.00,,,0.00,735,Wunderground v.1.15,2013-08-19 21:50:00,
2013-08-19 15:00:00,95.0,51.4,29.74,SE,143,1.0,1.0,23,0.00,,,0.00,795,Wunderground v.1.15,2013-08-19 22:00:00,
2013-08-19 15:10:00,95.5,51.8,29.73,WNW,292,1.0,1.0,23,0.00,,,0.00,719,Wunderground v.1.15,2013-08-19 22:10:00,
2013-08-19 15:20:00,95.3,53.9,29.73,WNW,283,2.0,6.0,25,0.00,,,0.00,482,Wunderground v.1.15,2013-08-19 22:20:00,
2013-08-19 15:30:00,93.7,52.6,29.73,West,271,6.0,6.0,25,0.00,,,0.00,619,Wunderground v.1.15,2013-08-19 22:30:00,
2013-08-19 15:40:00,93.3,53.3,29.74,WNW,296,5.0,10.0,26,0.00,,,0.00,686,Wunderground v.1.15,2013-08-19 22:40:00,
2013-08-19 15:50:00,93.6,54.6,29.73,WSW,257,6.0,6.0,27,0.00,,,0.00,696,Wunderground v.1.15,2013-08-19 22:50:00,
2013-08-19 16:00:00,94.4,52.0,29.74,WNW,302,2.0,5.0,24,0.00,,,0.00,631,Wunderground v.1.15,2013-08-19 23:00:00,
2013-08-19 16:10:00,94.0,51.7,29.73,NW,305,2.0,2.0,24,0.00,,,0.00,346,Wunderground v.1.15,2013-08-19 23:10:00,
2013-08-19 16:20:00,93.1,51.0,29.73,NNW,333,2.0,2.0,24,0.00,,,0.00,529,Wunderground v.1.15,2013-08-19 23:20:00,
2013-08-19 16:30:00,93.5,51.3,29.73,NNW,333,2.0,2.0,24,0.00,,,0.00,496,Wunderground v.1.15,2013-08-19 23:30:00,
2013-08-19 16:40:00,93.0,52.0,29.73,WNW,292,3.0,10.0,25,0.00,,,0.00,329,Wunderground v.1.15,2013-08-19 23:40:00,
2013-08-19 16:50:00,91.7,50.9,29.73,North,351,4.0,10.0,25,0.00,,,0.00,241,Wunderground v.1.15,2013-08-19 23:50:00,
2013-08-19 17:00:00,90.7,51.1,29.73,WNW,302,3.0,3.0,26,0.00,,,0.00,246,Wunderground v.1.15,2013-08-20 00:00:00,
2013-08-19 17:10:00,90.2,50.7,29.73,NW,309,4.0,7.0,26,0.00,,,0.00,262,Wunderground v.1.15,2013-08-20 00:10:00,
2013-08-19 17:20:00,90.2,50.7,29.73,WNW,302,3.0,3.0,26,0.00,,,0.00,246,Wunderground v.1.15,2013-08-20 00:20:00,
2013-08-19 17:30:00,90.4,50.8,29.73,NNW,346,1.0,1.0,26,0.00,,,0.00,195,Wunderground v.1.15,2013-08-20 00:30:00,
2013-08-19 17:40:00,90.5,49.9,29.73,NW,306,1.0,4.0,25,0.00,,,0.00,174,Wunderground v.1.15,2013-08-20 00:40:00,
2013-08-19 17:50:00,90.4,51.9,29.73,NW,305,0.0,0.0,27,0.00,,,0.00,162,Wunderground v.1.15,2013-08-20 00:50:00,
2013-08-19 18:00:00,88.6,55.8,29.73,NW,305,0.0,0.0,33,0.00,,,0.00,135,Wunderground v.1.15,2013-08-20 01:00:00,
2013-08-19 18:10:00,88.3,58.0,29.73,SE,146,0.0,12.0,36,0.00,,,0.00,114,Wunderground v.1.15,2013-08-20 01:10:00,
2013-08-19 18:20:00,86.4,58.5,29.73,South,180,0.0,12.0,39,0.00,,,0.00,90,Wunderground v.1.15,2013-08-20 01:20:00,
2013-08-19 18:30:00,85.7,57.9,29.73,South,180,0.0,12.0,39,0.00,,,0.00,51,Wunderground v.1.15,2013-08-20 01:30:00,
2013-08-19 18:40:00,85.2,59.5,29.72,South,179,0.0,12.0,42,0.00,,,0.00,28,Wunderground v.1.15,2013-08-20 01:40:00,
2013-08-19 18:50:00,84.6,59.6,29.72,SSE,148,0.0,12.0,43,0.00,,,0.00,9,Wunderground v.1.15,2013-08-20 01:50:00,
2013-08-19 19:00:00,82.9,59.4,29.72,SSE,149,0.0,12.0,45,0.00,,,0.00,0,Wunderground v.1.15,2013-08-20 02:00:00,
2013-08-19 19:10:00,82.0,59.8,29.71,West,279,0.0,0.0,47,0.00,,,0.00,0,Wunderground v.1.15,2013-08-20 02:10:00,
2013-08-19 19:20:00,80.0,59.1,29.71,West,279,0.0,0.0,49,0.00,,,0.00,0,Wunderground v.1.15,2013-08-20 02:20:00,
2013-08-19 19:30:00,78.8,59.1,29.72,West,279,0.0,0.0,51,0.00,,,0.00,0,Wunderground v.1.15,2013-08-20 02:30:00,
2013-08-19 19:40:00,78.5,58.3,29.72,West,279,0.0,0.0,50,0.00,,,0.00,0,Wunderground v.1.15,2013-08-20 02:40:00,
2013-08-19 19:50:00,77.8,59.3,29.73,West,279,0.0,0.0,53,0.00,,,0.00,0,Wunderground v.1.15,2013-08-20 02:50:00,
2013-08-19 20:00:00,77.1,57.6,29.74,West,279,0.0,0.0,51,0.00,,,0.00,0,Wunderground v.1.15,2013-08-20 03:00:00,
2013-08-19 20:10:00,76.6,57.1,29.74,West,271,0.0,0.0,51,0.00,,,0.00,0,Wunderground v.1.15,2013-08-20 03:10:00,
2013-08-19 20:20:00,75.7,56.3,29.75,West,271,0.0,0.0,51,0.00,,,0.00,0,Wunderground v.1.15,2013-08-20 03:20:00,
2013-08-19 20:30:00,75.5,55.0,29.76,West,271,0.0,0.0,49,0.00,,,0.00,0,Wunderground v.1.15,2013-08-20 03:30:00,
2013-08-19 20:40:00,75.2,55.3,29.77,West,271,0.0,0.0,50,0.00,,,0.00,0,Wunderground v.1.15,2013-08-20 03:40:00,
2013-08-19 20:50:00,75.6,55.6,29.78,West,271,0.0,0.0,50,0.00,,,0.00,0,Wunderground v.1.15,2013-08-20 03:50:00,
2013-08-19 21:00:00,75.7,56.3,29.78,SW,227,0.0,0.0,51,0.00,,,0.00,0,Wunderground v.1.15,2013-08-20 04:00:00,
2013-08-19 21:10:00,76.6,57.1,29.78,SW,225,0.0,0.0,51,0.00,,,0.00,0,Wunderground v.1.15,2013-08-20 04:10:00,
2013-08-19 21:20:00,76.6,57.1,29.77,SW,225,0.0,0.0,51,0.00,,,0.00,0,Wunderground v.1.15,2013-08-20 04:20:00,
2013-08-19 21:30:00,76.7,57.2,29.77,ESE,113,0.0,0.0,51,0.00,,,0.00,0,Wunderground v.1.15,2013-08-20 04:30:00,
2013-08-19 21:40:00,76.1,58.2,29.77,ESE,120,0.0,0.0,54,0.00,,,0.00,0,Wunderground v.1.15,2013-08-20 04:40:00,
2013-08-19 21:50:00,75.3,59.0,29.78,ESE,120,0.0,0.0,57,0.00,,,0.00,0,Wunderground v.1.15,2013-08-20 04:50:00,
2013-08-19 22:00:00,74.6,59.3,29.78,ESE,120,0.0,0.0,59,0.00,,,0.00,0,Wunderground v.1.15,2013-08-20 05:00:00,
2013-08-19 22:10:00,74.7,59.4,29.78,ESE,119,0.0,0.0,59,0.00,,,0.00,0,Wunderground v.1.15,2013-08-20 05:10:00,
2013-08-19 22:20:00,74.8,59.0,29.79,ESE,120,0.0,0.0,58,0.00,,,0.00,0,Wunderground v.1.15,2013-08-20 05:20:00,
2013-08-19 22:30:00,75.2,58.4,29.79,ESE,113,0.0,0.0,56,0.00,,,0.00,0,Wunderground v.1.15,2013-08-20 05:30:00,
2013-08-19 22:40:00,76.3,57.4,29.79,SE,128,1.0,1.0,52,0.00,,,0.00,0,Wunderground v.1.15,2013-08-20 05:40:00,
2013-08-19 22:50:00,76.6,56.6,29.80,SE,143,1.0,2.0,50,0.00,,,0.00,0,Wunderground v.1.15,2013-08-20 05:50:00,
2013-08-19 23:00:00,76.5,56.5,29.80,SE,140,0.0,0.0,50,0.00,,,0.00,0,Wunderground v.1.15,2013-08-20 06:00:00,
2013-08-19 23:10:00,76.0,56.6,29.81,WSW,244,0.0,0.0,51,0.00,,,0.00,0,Wunderground v.1.15,2013-08-20 06:10:00,
2013-08-19 23:20:00,76.3,56.3,29.81,SSW,196,0.0,0.0,50,0.00,,,0.00,0,Wunderground v.1.15,2013-08-20 06:20:00,
2013-08-19 23:30:00,76.7,55.0,29.82,South,191,3.0,5.0,47,0.00,,,0.00,0,Wunderground v.1.15,2013-08-20 06:30:00,
2013-08-19 23:40:00,78.3,55.8,29.82,SSW,205,8.0,8.0,46,0.00,,,0.00,0,Wunderground v.1.15,2013-08-20 06:40:00,
2013-08-19 23:50:00,78.5,57.2,29.82,SSW,197,8.0,10.0,48,0.00,,,0.00,0,Wunderground v.1.15,2013-08-20 06:50:00,